Location: Morrison Observatory
(41.7012°N, 86.2315°W)
Time: 22:17:08
(UTC-04:00)

Daily predictions for brighter satellites

Satellite Brightness Start Highest point End
(mag) Time Altitude Azimuth Time Altitude Azimuth Time Altitude Azimuth
Cosmos 1605 Rocket 4.4 20:41:26 10° SSE 20:47:18 41° E 20:53:07 10° NNE
EP 1 4.3 20:48:33 10° SSW 20:51:06 50° ESE 20:53:38 10° NE
Meteor 2-21 Rocket 4.5 20:45:18 10° S 20:51:29 77° E 20:57:41 10° N
Lacrosse 5 3.2 20:47:19 10° NNW 20:51:43 28° NNE 20:56:04 10° E
ERS-1 Rocket 4.4 20:49:28 10° ESE 20:53:08 21° ENE 20:56:49 10° NNE
Cosmos 1461 2.8 20:50:58 10° NNW 20:55:03 69° NE 20:58:58 10° SE
DELTA 2 R/B (1) 3.7 20:50:19 10° W 20:55:52 68° S 21:01:24 10° ESE
Cosmos 1346 Rocket 2.8 20:52:51 10° N 20:56:47 62° E 21:00:44 10° SSE
Cosmos 2082 3.8 20:52:09 10° NNW 20:57:44 61° ENE 21:03:16 10° SE
Cosmos 2297 Rocket 2.6 20:52:25 10° NNW 20:57:53 47° ENE 21:03:20 10° SE
Meteor 1-5 Rocket 4.1 20:53:16 10° S 20:58:35 72° E 21:04:03 10° NNE
NOSS 2-1 (E) 4.4 20:55:39 10° SW 20:59:29 53° NW 21:03:59 10° NNE
Cosmos 1025 Rocket 4.1 20:57:01 10° NNW 21:01:15 49° W 21:05:25 10° SSW
Meteor 2-15 4.4 20:55:25 10° N 21:01:31 80° E 21:07:33 10° S
Cosmos 1898 Rocket 4.5 20:58:28 10° N 21:03:08 30° ENE 21:07:44 10° ESE
Cosmos 1536 4.4 21:01:55 10° SSW 21:05:42 41° WNW 21:09:32 10° N
H-2A R/B 4.0 21:04:20 10° E 21:05:50 12° ENE 21:07:20 10° NE
Meteor 2-15 Rocket 4.4 21:01:35 10° N 21:07:40 76° E 21:13:43 10° SSE
Cosmos 1626 Rocket 4.1 21:03:47 10° N 21:07:56 40° ENE 21:12:02 10° SSE
Cosmos 1892 Rocket 4.0 21:03:58 10° NNW 21:08:26 69° W 21:12:53 10° S
Cosmos 1455 Rocket 3.0 21:08:15 10° S 21:12:35 88° E 21:16:58 10° N
Cosmos 2123 Rocket 4.0 21:10:27 10° N 21:16:40 85° E 21:22:50 10° S
Cosmos 1602 Rocket 3.8 21:12:56 10° N 21:17:18 51° ENE 21:21:36 10° SSE
RESURS DK-1 3.8 21:14:42 10° N 21:18:02 23° NE 21:20:28 14° E
Cosmos 2084 3.9 21:17:00 10° NNW 21:20:52 43° NE 21:23:56 16° ESE
CZ-4 DEB 3.6 21:22:57 17° SE 21:24:45 30° ENE 21:27:34 10° N
Cosmos 1743 4.1 21:26:38 18° ESE 21:27:56 21° E 21:30:53 10° NE
Cosmos 220 Rocket 3.9 21:23:56 10° NNW 21:28:09 70° ENE 21:31:55 13° SSE
SL-24 R/B - RUBIN 2 4.3 21:26:11 10° SSW 21:31:57 68° ESE 21:38:24 10° NE
Cosmos 1697 Rocket 2.9 21:29:17 10° S 21:34:40 48° ESE 21:40:05 10° NE
OAO 2 Rocket 4.0 21:30:58 10° WSW 21:35:35 38° S 21:38:28 21° ESE
Cosmos 2278 4.5 21:36:39 10° SW 21:42:12 56° WNW 21:47:50 10° NNE
Resurs 01 Rocket 4.2 21:40:29 10° SW 21:43:47 20° W 21:47:07 10° NW
Cosmos 1153 Rocket 4.4 21:40:35 10° S 21:46:46 83° E 21:52:56 10° N
ALOS 3.5 21:44:21 10° S 21:48:44 41° W 21:53:10 10° NNW
Cosmos 1606 Rocket 4.4 21:50:20 27° ESE 21:51:16 30° E 21:55:08 10° NNE
ASTEX 1 4.3 21:47:29 10° NNE 21:51:45 27° E 21:52:41 26° ESE
H-2A R/B 4.2 21:48:16 10° SSW 21:51:54 38° W 21:55:36 10° NNW
Cosmos 1975 3.3 21:48:20 10° SSW 21:52:23 65° W 21:56:30 10° N
ARGOS 4.5 21:53:32 20° E 21:55:02 22° ENE 21:59:04 10° NNE
USA 186 3.6 21:53:43 10° SSW 21:56:28 28° W 21:59:04 10° NW
Cosmos 1980 Rocket 2.4 21:52:23 10° S 21:57:44 45° ESE 22:03:08 10° NE
Lacrosse 5 rocket 2.3 21:56:37 10° WNW 21:59:59 33° SW 22:01:42 21° S
Cosmos 2298 Rocket 4.1 21:55:01 10° NNW 22:00:21 82° WSW 22:04:08 20° SSE
Cosmos 1802 Rocket 4.1 21:55:57 10° SSE 22:02:09 56° E 22:08:25 10° NNE
Envisat 2.9 22:00:25 25° SSE 22:03:25 69° ENE 22:08:29 10° N
OTV 4 2.9 22:04:05 10° WSW 22:05:33 14° SSW 22:05:33 14° SSW
Iridium 4 Rocket 3.8 22:01:30 10° N 22:06:30 61° W 22:11:01 10° SSW
Cosmos 1937 Rocket 3.4 22:01:21 10° NNW 22:06:39 76° ENE 22:09:16 31° SSE
Cosmos 1726 Rocket 3.8 22:14:23 45° ESE 22:14:39 46° E 22:18:52 10° NNE
Cosmos 1666 4.2 22:16:27 24° NE 22:16:27 24° NE 22:18:23 10° NNE
Cosmos 2016 Rocket 4.0 22:11:10 22° SSE 22:15:03 58° E 22:21:07 10° NNE
H-2A R/B 3.7 22:17:51 17° ENE 22:17:54 17° ENE 22:21:01 10° NNE
Cosmos 990 Rocket 3.9 22:13:52 10° NNW 22:19:09 72° ENE 22:20:53 42° SE
Tiangong 1 1.3 22:16:42 10° W 22:19:22 62° W 22:19:22 62° W
Cosmos 2263 Rocket 3.8 22:20:29 10° N 22:24:27 19° NE 22:25:29 19° ENE
Cosmos 2227 Rocket 4.2 22:21:54 10° NW 22:26:17 23° W 22:30:39 10° SSW
Cosmos 2173 Rocket 4.0 22:21:05 10° S 22:27:28 83° W 22:33:50 10° N
Cosmos 1939 Rocket 3.5 22:25:54 31° SSW 22:27:38 55° W 22:31:45 10° NNW
Cosmos 1825 Rocket 3.5 22:24:02 10° N 22:28:29 82° W 22:29:39 49° S
Cosmos 2322 Rocket 3.4 22:32:37 25° ENE 22:32:37 25° ENE 22:35:31 10° NE
ERS-1 Rocket 3.7 22:28:09 19° SSW 22:31:33 49° W 22:36:25 10° NNW
Cosmos 2098 Rocket 4.0 22:29:39 33° SSE 22:32:46 61° E 22:38:30 10° NNE
Meteor 1-21 4.2 22:27:51 10° N 22:33:40 89° E 22:35:57 39° S
BREEZE-M DEB (TANK) 4.3 22:29:58 10° NW 22:34:03 73° NNE 22:39:15 31° ESE
Lacrosse 5 2.0 22:30:01 10° NW 22:35:02 67° SW 22:36:04 52° S
SPOT 1/Viking Rocket 3.7 22:36:08 50° E 22:36:42 52° ENE 22:41:45 10° N
Cosmos 1340 2.7 22:33:00 10° NNW 22:36:47 73° W 22:36:48 73° W
YAOGAN 6 3.0 22:38:50 56° N 22:38:50 56° N 22:41:54 10° N
Cosmos 1953 Rocket 3.5 22:34:19 10° N 22:38:47 87° W 22:39:18 70° S
SPOT 5 2.9 22:39:47 53° S 22:40:59 84° WSW 22:45:50 10° NNW
Cosmos 2100 Rocket 4.5 22:35:03 10° SSW 22:41:15 60° W 22:47:24 10° N
H-2A R/B 2.2 22:40:46 57° SW 22:41:18 63° WSW 22:45:25 10° NNW
Cosmos 967 Rocket 4.4 22:34:57 10° NNW 22:41:20 86° ENE 22:43:06 51° SE
Cosmos 2297 Rocket 4.1 22:37:06 10° NW 22:41:36 25° WSW 22:46:04 10° SSW
DELTA 2 R/B (1) 4.3 22:36:53 10° W 22:41:56 36° SSW 22:42:25 36° SSW
Cosmos 2360 4.1 22:38:32 24° SSW 22:42:04 75° ESE 22:47:48 10° NNE
Meteor 2-9 Rocket 4.1 22:41:32 58° SE 22:42:16 65° E 22:47:38 10° NNE
Cosmos 1864 Rocket 4.4 22:41:44 50° SE 22:43:07 63° E 22:49:10 10° NNE
USA 245 4.5 22:41:37 50° SE 22:43:15 69° ENE 22:49:34 10° N
Cosmos 1763 Rocket 3.4 22:41:43 23° SSW 22:44:54 83° WNW 22:50:01 10° NNE
Cosmos 2227 4.1 22:43:07 10° NNW 22:48:55 86° WSW 22:50:03 60° SSE
Tsikada Rocket 4.0 22:43:37 10° N 22:50:03 71° E 22:51:23 55° SE
Cosmos 1125 Rocket 3.6 22:46:30 10° NNW 22:51:36 56° ENE 22:51:36 56° ENE
Cosmos 2228 4.1 22:54:37 36° NNE 22:54:37 36° NNE 22:57:15 10° NNE
MetOp-A 4.3 22:54:40 52° SSW 22:55:53 70° WSW 23:01:15 10° NNW
RESURS DK-1 3.7 22:52:25 10° NW 22:56:08 32° WSW 22:56:25 32° WSW
Cosmos 1758 Rocket 3.8 22:53:13 10° NNW 22:57:28 63° W 22:57:28 63° W
USA 215 3.7 23:03:14 40° ENE 23:05:07 51° NNE 23:11:25 10° NW
Cosmos 841 Rocket 3.9 23:04:54 29° SW 23:07:30 60° WNW 23:12:40 10° NNE
Terra 3.0 23:11:26 32° NNE 23:11:26 32° NNE 23:14:32 10° N
Cosmos 1816 Rocket 4.3 23:05:15 10° N 23:11:40 81° E 23:12:13 74° SE
BREEZE-M DEB (TANK) 3.9 23:10:10 10° WNW 23:11:28 31° WNW 23:11:28 31° WNW
Cosmos 1725 Rocket 4.1 23:12:55 48° SSW 23:14:43 73° W 23:20:59 10° N
SL-19 R/B 4.3 23:12:29 10° N 23:17:57 71° WNW 23:18:29 65° WSW
Meteor 2-17 Rocket 4.3 23:20:18 80° ENE 23:20:18 80° ENE 23:26:11 10° N
Milstar 3 Cent rocket 4.4 23:04:06 10° W 23:20:16 37° SSW 23:22:31 35° S
Cosmos 2058 Rocket 4.2 23:22:16 42° WNW 23:22:16 42° WNW 23:26:34 10° N
SL-16 R/B 2.6 23:28:05 56° NNE 23:28:05 56° NNE 23:32:32 10° NNE
NOAA 11 4.5 23:27:55 59° WSW 23:27:56 59° W 23:33:21 10° NNW
ARGOS 3.7 23:35:03 51° W 23:35:03 51° W 23:40:09 10° NNW
BREEZE-M DEB (TANK) 3.5 23:29:47 10° W 23:38:01 59° NW 23:38:01 59° NW
Cosmos 2233 Rocket 4.0 23:39:50 75° WNW 23:39:50 75° WNW 23:46:03 10° N
Cosmos 1980 Rocket 4.0 23:37:04 10° WSW 23:41:55 28° NW 23:46:48 10° N
Cosmos 2360 Rocket 4.1 23:45:50 19° NE 23:45:50 19° NE 23:47:28 10° NE
